Weather in Lodeynoye

Russia / Arkhangel'skaya Oblast'     61°15′21″N   41°22′28″E
temp.,
°C
wind,
m/s
gust,
m/s
humid.,
%
clouds,
%
prec.,
mm/h
press.,
hPa
HPBL,
m
16 september, thu
thu1600:00+4nnw41089100 0.0 1014415
03:00+3nnw31089100 0.0 1015404
06:00+3nnw41088100 0.0 1016472
09:00+5n4776100 0.0 1017547
12:00+8nnw465874 0.0 10171409
15:00+6nnw3664100 0.0 10181303
18:00+5nnw3775100 0.0 1018555
21:00+4nw2886100 0.1 1018307
17 september, fri
fri1700:00+3nw2792100 0.2 1018262
03:00+2nw289884 0.3 1018237
06:00+3nw2793100 0.0 1018724
09:00+4nnw368992 0.3 1019604
12:00+6nnw3683100 0.2 1019838
15:00+5n379298 0.3 1021801
18:00+6n498889 0.2 1021654
21:00+4nne3888100 0.3 1024741
18 september, sat
sat1800:00+3nne3886100 0.1 1025626
03:00+2n2783100 0.1 1027327
06:00+3n2772100 0.0 1027289
09:00+5nnw3663100 0.0 1028571
12:00+6n3554100 0.0 10281535
15:00+6n3564100 0.0 10281075
18:00+5n3671100 0.1 1029352
21:00+3n278027 0.1 1029290
19 september, sun
sun1900:000n23935 0.0 103051
03:000nw258992 0.0 103091
06:00+2nnw3885100 0.0 1030286
09:00+4nne468389 0.0 1031631
12:00+5nne4566100 0.0 10321240
15:00+5nne3661100 0.0 10321311
18:00+4ne3665100 0.0 1032317
21:00+4ne2766100 0.0 1033322
20 september, mon
mon2000:00+3ne267896 0.0 1033178
03:00+3nne2777100 0.0 1034258
06:00+2ne258176 0.0 1034163
09:00+4ne3565100 0.0 10351102
12:00+5ene3460100 0.0 10351236
15:00+5ene3461100 0.0 10341111
18:00+4ene2464100 0.0 1033204
21:00+4e2569100 0.0 1033194